Weather History for St. Petersburg, FL

Change the Weather History Date:

Thursday, January 17, 2013

  Actual Average Record
Temperature  
Mean Temperature 65 °F -  
Max Temperature 73 °F 69 °F 81 °F (1949)
Min Temperature 57 °F 52 °F 34 °F (1959)
Growing Degree Days 15 (Base 50)    
Moisture  
Dew Point 60 °F    
Average Humidity 84    
Maximum Humidity 97    
Minimum Humidity 60    
Precipitation  
Precipitation 0.03 in - - ()
Sea Level Pressure  
Sea Level Pressure 30.06 in    
Wind  
Wind Speed 9 mph (WNW)    
Max Wind Speed 18 mph    
Max Gust Speed 30 mph    
Visibility 7 miles    
Events Rain    
Averages and records for this station are not official NWS values.
T = Trace of Precipitation, MM = Missing Value Source: NWS Daily Summary

Daily Weather History Graph

Daily Weather History Graph

Search for Another Location

Airport:

Trip Planner

Search our weather history database for the weather conditions in past years. The results will help you decide how hot, cold, wet, or windy it might be!

Date:

Astronomy

Jan. 17, 2013 Rise Set
Actual Time 7:22 AM EST 5:59 PM EST
Civil Twilight 6:57 AM EST 6:24 PM EST
Nautical Twilight 6:28 AM EST 6:53 PM EST
Astronomical Twilight 6:00 AM EST 7:21 PM EST
Moon 11:06 AM EST (1/17) No Moon Set
Length of Visible Light 11h 27m
Length of Day
10h 37m
Waxing Crescent, 37% of the Moon is Illuminated
Jan 17
Waxing Crescent
Jan 18
First Quarter
Jan 26
Full
Feb 3
Last Quarter
Feb 10
New

Hourly Weather History & Observations

Time (EST) Temp. Dew Point Humidity Pressure Visibility Wind Dir Wind Speed Gust Speed Precip Events Conditions
12:53 AM 69.1 °F 66.0 °F 90% 30.03 in 10.0 mi Calm Calm - N/A   Clear
1:53 AM 69.1 °F 66.9 °F 93% 30.03 in 10.0 mi WSW 4.6 mph - N/A   Clear
3:53 AM 69.1 °F 66.9 °F 93% 30.01 in 10.0 mi SW 3.5 mph - N/A   Scattered Clouds
4:53 AM 69.1 °F 66.9 °F 93% 30.00 in 10.0 mi SSW 3.5 mph - N/A   Partly Cloudy
5:13 AM 69.1 °F 66.9 °F 93% 30.00 in 10.0 mi South 8.1 mph - N/A   Partly Cloudy
6:38 AM 68.0 °F 66.9 °F 96% 30.01 in 7.0 mi SSW 6.9 mph - N/A   Partly Cloudy
6:53 AM 68.0 °F 66.9 °F 96% 30.01 in 7.0 mi SSW 6.9 mph - N/A   Partly Cloudy
7:53 AM 69.1 °F 68.0 °F 96% 30.02 in 7.0 mi SSW 10.4 mph - N/A   Overcast
8:53 AM 70.0 °F 69.1 °F 97% 30.04 in 10.0 mi SW 8.1 mph - N/A   Overcast
9:53 AM 73.0 °F 69.1 °F 87% 30.06 in 10.0 mi SW 10.4 mph - N/A   Overcast
10:05 AM 70.0 °F 66.9 °F 90% 30.07 in 7.0 mi NW 15.0 mph 20.7 mph 0.00 in Rain Light Rain
10:15 AM 69.1 °F 66.0 °F 90% 30.07 in 6.0 mi WNW 10.4 mph 24.2 mph 0.01 in Rain Light Rain
10:23 AM 68.0 °F 66.0 °F 93% 30.08 in 7.0 mi WNW 10.4 mph - 0.01 in Rain Light Rain
10:41 AM 68.0 °F 64.9 °F 90% 30.08 in 2.5 mi WNW 12.7 mph 18.4 mph 0.02 in Rain Light Rain
10:50 AM 66.2 °F 64.4 °F 94% 30.07 in 6.0 mi NNW 12.7 mph - 0.02 in Rain Light Rain
10:53 AM 66.9 °F 64.9 °F 93% 30.07 in 7.0 mi NW 12.7 mph - 0.02 in   Overcast
11:23 AM 68.0 °F 64.9 °F 90% 30.06 in 10.0 mi NW 11.5 mph - N/A   Overcast
11:53 AM 66.0 °F 64.0 °F 93% 30.06 in 5.0 mi WNW 11.5 mph - N/A   Overcast
12:16 PM 66.0 °F 63.0 °F 90% 30.05 in 3.0 mi NW 16.1 mph 23.0 mph 0.00 in Rain Light Rain
12:24 PM 64.9 °F 63.0 °F 93% 30.04 in 4.0 mi NNW 13.8 mph 21.9 mph 0.00 in Rain Light Rain
12:48 PM 64.4 °F 62.6 °F 94% 30.05 in 2.5 mi NW 12.7 mph 25.3 mph 0.00 in Rain Light Rain
12:53 PM 64.0 °F 62.1 °F 93% 30.05 in 2.5 mi NW 9.2 mph 23.0 mph 0.00 in Rain Light Rain
1:00 PM 64.0 °F 62.1 °F 93% 30.05 in 2.0 mi WNW 16.1 mph 23.0 mph 0.00 in Rain Light Rain
1:13 PM 63.0 °F 61.0 °F 93% 30.04 in 2.0 mi NW 12.7 mph 25.3 mph 0.00 in Rain Light Rain
1:30 PM 63.0 °F 61.0 °F 93% 30.04 in 3.0 mi NNW 15.0 mph 21.9 mph 0.01 in   Overcast
1:53 PM 61.0 °F 59.0 °F 93% 30.04 in 2.5 mi NW 15.0 mph 29.9 mph 0.01 in   Overcast
2:08 PM 60.1 °F 57.9 °F 93% 30.05 in 2.5 mi NNW 17.3 mph 26.5 mph N/A   Overcast
2:21 PM 59.0 °F 57.0 °F 93% 30.05 in 3.0 mi NW 13.8 mph 24.2 mph N/A   Overcast
2:53 PM 59.0 °F 55.0 °F 87% 30.05 in 10.0 mi NW 13.8 mph 23.0 mph 0.00 in   Overcast
3:41 PM 64.0 °F 54.0 °F 70% 30.05 in 10.0 mi NW 13.8 mph 24.2 mph N/A   Overcast
3:53 PM 63.0 °F 53.1 °F 70% 30.06 in 10.0 mi NNW 13.8 mph 26.5 mph N/A   Overcast
4:03 PM 63.0 °F 52.0 °F 67% 30.06 in 10.0 mi NW 12.7 mph 23.0 mph N/A   Overcast
4:53 PM 63.0 °F 48.9 °F 60% 30.07 in 10.0 mi NW 11.5 mph 23.0 mph N/A   Overcast
5:53 PM 62.1 °F 48.0 °F 60% 30.09 in 10.0 mi NW 11.5 mph 24.2 mph N/A   Mostly Cloudy
6:53 PM 62.1 °F 48.9 °F 62% 30.10 in 10.0 mi NW 11.5 mph 23.0 mph N/A   Mostly Cloudy
7:53 PM 61.0 °F 48.9 °F 64% 30.12 in 10.0 mi NW 12.7 mph 20.7 mph N/A   Overcast
8:53 PM 61.0 °F 48.9 °F 64% 30.14 in 10.0 mi NNW 13.8 mph 24.2 mph N/A   Overcast
9:53 PM 59.0 °F 48.0 °F 67% 30.14 in 10.0 mi NW 18.4 mph 27.6 mph N/A   Overcast
10:53 PM 59.0 °F 46.9 °F 64% 30.14 in 10.0 mi NW 13.8 mph 23.0 mph N/A   Overcast
11:24 PM 57.9 °F 46.9 °F 67% 30.14 in 10.0 mi North 18.4 mph 24.2 mph N/A   Overcast
11:53 PM 57.0 °F 46.0 °F 67% 30.15 in 10.0 mi NNW 12.7 mph 21.9 mph N/A   Mostly Cloudy